�N����,����,�~����,�C��,���x,�C��,����,���ϕ���,�ő�u�ԕ���,�ő厞����,���˗�,�I�_���x,�n�����x,�ő啗���N��,DTYPE
"17/05/28","00:10",0.0,14.0,83.8,1007.1,333.0,2.0,3.4,322.4,0.00,11.3,19.1,"00:02:40",1
"17/05/28","00:20",0.0,14.1,84.0,1007.1,328.6,2.1,3.7,327.5,0.00,11.5,18.9,"00:19:20",1
"17/05/28","00:30",0.0,14.0,83.9,1007.1,332.6,2.1,3.3,334.1,0.00,11.4,18.9,"00:26:32",1
"17/05/28","00:40",0.0,14.2,83.9,1007.1,330.2,2.6,4.4,315.2,0.00,11.6,18.5,"00:38:08",1
"17/05/28","00:50",0.0,14.3,83.3,1006.9,333.0,2.3,3.9,322.5,0.00,11.5,18.7,"00:41:20",1
"17/05/28","01:00",0.0,14.1,83.9,1006.7,329.8,2.6,4.2,325.6,0.00,11.5,18.6,"00:57:44",1
"17/05/28","01:10",0.0,14.1,84.3,1007.1,330.3,2.6,4.3,338.9,0.00,11.5,18.5,"01:08:00",1
"17/05/28","01:20",0.0,14.4,83.2,1006.9,325.1,3.4,5.4,328.8,0.00,11.6,18.6,"01:11:44",1
"17/05/28","01:30",0.0,14.4,82.9,1006.9,326.3,2.6,3.9,328.6,0.00,11.6,18.3,"01:27:04",1
"17/05/28","01:40",0.0,14.3,83.3,1006.9,321.2,2.5,4.0,313.9,0.00,11.5,18.5,"01:35:12",1
"17/05/28","01:50",0.0,14.1,83.3,1006.9,323.4,2.5,4.1,335.6,0.00,11.4,18.4,"01:48:08",1
"17/05/28","02:00",0.0,14.0,84.2,1006.9,326.8,2.3,4.5,336.9,0.00,11.4,18.3,"01:56:08",1
"17/05/28","02:10",0.0,13.8,84.7,1006.9,317.8,1.8,3.1,335.4,0.00,11.3,18.1,"02:07:12",1
"17/05/28","02:20",0.0,13.8,85.1,1006.9,325.8,2.2,4.3,335.8,0.00,11.4,17.9,"02:10:48",1
"17/05/28","02:30",0.0,13.7,85.5,1007.1,324.0,2.2,3.5,311.3,0.00,11.4,18.0,"02:21:28",1
"17/05/28","02:40",0.0,13.6,85.9,1006.9,324.9,2.8,4.0,342.1,0.00,11.3,18.1,"02:33:44",1
"17/05/28","02:50",0.0,13.5,86.3,1006.9,324.3,2.7,4.5,332.7,0.00,11.3,17.9,"02:45:20",1
"17/05/28","03:00",0.0,13.4,86.6,1007.1,328.5,2.6,4.2,330.3,0.00,11.3,18.0,"02:54:16",1
"17/05/28","03:10",0.0,13.3,87.0,1007.1,329.1,2.5,3.6,326.4,0.00,11.2,18.1,"03:07:12",1
"17/05/28","03:20",0.0,13.3,87.3,1007.4,318.8,2.2,3.6,334.3,0.00,11.3,18.0,"03:10:24",1
"17/05/28","03:30",0.0,13.1,87.4,1007.1,329.3,1.7,2.7,333.3,0.00,11.1,17.9,"03:25:36",1
"17/05/28","03:40",0.0,12.9,88.1,1007.4,335.0,1.7,3.2,339.9,0.00,11.0,17.8,"03:31:52",1
"17/05/28","03:50",0.0,12.8,88.6,1007.4,333.1,1.5,2.7,322.8,0.00,11.0,17.9,"03:42:02",1
"17/05/28","04:00",0.2,12.6,89.2,1007.4,332.1,1.6,2.8,331.7,0.00,10.9,17.6,"03:59:28",1
"17/05/28","04:10",0.0,12.5,89.7,1007.6,329.2,1.8,2.8,329.4,0.00,10.9,17.8,"04:09:06",1
"17/05/28","04:20",0.0,12.5,90.2,1007.1,334.8,1.8,2.8,339.6,0.00,11.0,17.5,"04:13:04",1
"17/05/28","04:30",0.0,12.5,90.8,1007.4,329.2,2.2,3.4,332.0,0.00,11.1,17.6,"04:28:08",1
"17/05/28","04:40",0.0,12.6,90.9,1007.6,328.8,2.1,3.3,325.1,0.00,11.2,17.5,"04:30:48",1
"17/05/28","04:50",0.0,12.7,91.0,1007.4,332.2,2.3,4.2,335.0,0.00,11.3,17.4,"04:46:42",1
"17/05/28","05:00",0.0,12.7,91.0,1007.6,332.4,2.1,3.3,339.8,0.00,11.3,17.5,"04:53:52",1
"17/05/28","05:10",0.0,12.8,90.7,1007.6,330.0,2.3,4.7,321.3,0.00,11.4,17.5,"05:02:00",1
"17/05/28","05:20",0.0,12.9,90.7,1007.8,327.8,2.2,4.0,344.8,0.00,11.5,17.3,"05:18:00",1
"17/05/28","05:30",0.0,12.8,90.5,1008.1,337.0,2.2,3.9,332.1,0.00,11.3,17.3,"05:26:48",1
"17/05/28","05:40",0.0,12.8,90.3,1008.1,336.0,2.1,4.1,341.5,0.00,11.3,17.4,"05:31:52",1
"17/05/28","05:50",0.0,13.1,90.7,1008.6,328.4,2.6,4.7,324.2,0.00,11.7,17.3,"05:45:46",1
"17/05/28","06:00",0.0,13.4,89.6,1008.6,329.3,3.0,4.8,318.8,0.00,11.8,17.2,"05:51:44",1
"17/05/28","06:10",0.0,13.8,88.9,1008.6,328.4,2.8,4.9,323.9,0.02,12.0,17.3,"06:07:44",1
"17/05/28","06:20",0.0,14.3,87.2,1009.0,334.5,2.2,3.7,329.3,0.03,12.2,17.2,"06:11:44",1
"17/05/28","06:30",0.0,14.9,86.0,1009.3,337.6,1.7,3.6,341.2,0.05,12.6,17.4,"06:27:44",1
"17/05/28","06:40",0.0,15.5,84.0,1009.3,321.0,1.7,3.9,347.9,0.07,12.9,17.2,"06:37:52",1
"17/05/28","06:50",0.0,16.0,81.3,1009.3,335.2,2.0,3.6,347.4,0.09,12.8,17.4,"06:43:36",1
"17/05/28","07:00",0.0,16.9,77.7,1009.7,345.5,1.3,2.6,347.5,0.11,13.0,17.5,"06:50:32",1
"17/05/28","07:10",0.0,17.6,75.4,1009.3,348.7,1.2,2.7,350.7,0.14,13.2,17.6,"07:05:36",1
"17/05/28","07:20",0.0,18.1,72.6,1009.7,323.9,0.8,1.7,283.7,0.16,13.1,17.7,"07:16:16",1
"17/05/28","07:30",0.0,18.9,69.5,1009.7,296.1,0.6,2.2,225.8,0.19,13.2,18.0,"07:29:20",1
"17/05/28","07:40",0.0,19.3,69.2,1009.5,137.1,0.6,1.2,188.0,0.22,13.6,18.1,"07:30:08",1
"17/05/28","07:50",0.0,19.6,65.3,1009.5,326.8,0.7,1.6,185.5,0.25,13.0,18.5,"07:40:16",1
"17/05/28","08:00",0.0,19.6,65.0,1009.3,320.4,0.7,2.0,355.3,0.12,12.9,18.4,"07:55:44",1
"17/05/28","08:10",0.0,18.9,68.8,1009.3,355.4,0.7,1.6,347.9,0.15,13.1,18.3,"08:06:40",1
"17/05/28","08:20",0.0,19.0,67.1,1009.7,356.9,0.8,1.8,349.0,0.20,12.8,18.5,"08:16:24",1
"17/05/28","08:30",0.0,20.0,66.6,1009.3,314.4,0.7,1.9,334.7,0.30,13.6,18.9,"08:25:20",1
"17/05/28","08:40",0.0,20.6,62.5,1009.3,119.8,0.8,2.7,334.4,0.38,13.2,19.2,"08:33:36",1
"17/05/28","08:50",0.0,21.3,63.5,1009.3,347.2,1.0,2.7,86.8,0.40,14.1,19.2,"08:47:28",1
"17/05/28","09:00",0.0,20.1,63.8,1009.3,350.9,1.5,5.0,341.9,0.23,13.1,19.4,"08:59:36",1
"17/05/28","09:10",0.0,20.3,64.4,1009.0,346.6,2.3,4.4,338.2,0.27,13.4,19.7,"09:00:56",1
"17/05/28","09:20",0.0,20.9,60.6,1009.0,329.8,1.5,4.1,343.2,0.33,13.0,19.8,"09:10:48",1
"17/05/28","09:30",0.0,21.1,62.6,1009.0,324.2,1.5,2.8,341.7,0.40,13.7,20.1,"09:25:28",1
"17/05/28","09:40",0.0,21.8,59.1,1008.8,252.9,1.1,3.1,223.7,0.49,13.5,20.4,"09:37:12",1
"17/05/28","09:50",0.0,20.3,63.9,1008.8,273.0,1.3,3.3,229.5,0.16,13.3,20.4,"09:44:48",1
"17/05/28","10:00",0.0,20.3,64.0,1009.0,277.5,1.5,3.6,333.0,0.14,13.3,20.4,"09:56:48",1
"17/05/28","10:10",0.0,20.6,61.2,1009.0,282.3,2.2,4.1,328.2,0.24,12.9,20.6,"10:09:52",1
"17/05/28","10:20",0.0,20.5,61.0,1009.0,299.6,1.8,3.6,343.2,0.16,12.8,20.5,"10:18:40",1
"17/05/28","10:30",0.0,21.9,54.4,1008.6,328.4,1.5,4.1,332.3,0.40,12.3,20.9,"10:23:20",1
"17/05/28","10:40",0.0,21.6,54.2,1008.6,14.9,1.3,3.1,333.8,0.29,12.0,21.0,"10:35:20",1
"17/05/28","10:50",0.0,21.0,58.3,1009.0,333.1,1.8,4.1,315.6,0.19,12.5,21.0,"10:46:08",1
"17/05/28","11:00",0.0,21.1,61.0,1009.0,306.3,1.7,3.5,334.9,0.18,13.3,20.8,"10:56:48",1
"17/05/28","11:10",0.0,22.4,57.1,1008.8,351.3,1.8,4.3,331.7,0.46,13.5,21.0,"11:05:04",1
"17/05/28","11:20",0.0,23.3,53.6,1009.0,315.4,1.6,4.2,345.2,0.57,13.4,21.5,"11:18:40",1
"17/05/28","11:30",0.0,22.3,55.4,1008.6,296.8,2.0,4.2,238.6,0.44,13.0,21.7,"11:23:20",1
"17/05/28","11:40",0.0,22.0,56.0,1008.8,315.0,1.6,3.9,334.2,0.34,12.9,21.9,"11:39:12",1
"17/05/28","11:50",0.0,22.0,56.6,1008.8,326.1,2.3,6.3,347.9,0.30,13.0,21.9,"11:41:52",1
"17/05/28","12:00",0.0,22.1,56.9,1008.6,325.0,1.8,4.0,331.7,0.31,13.2,21.9,"11:50:08",1
"17/05/28","12:10",0.0,22.2,56.6,1008.3,344.8,2.2,4.2,346.1,0.23,13.2,22.2,"12:03:36",1
"17/05/28","12:20",0.0,24.4,49.4,1008.1,314.8,1.3,4.2,345.1,0.66,13.2,22.3,"12:13:12",1
"17/05/28","12:30",0.0,23.1,55.5,1007.8,290.6,1.3,3.6,308.8,0.29,13.8,22.3,"12:25:20",1
"17/05/28","12:40",0.0,23.6,52.3,1007.4,292.6,2.1,7.0,338.8,0.46,13.3,22.7,"12:36:24",1
"17/05/28","12:50",0.0,23.1,51.5,1007.4,295.0,1.7,4.4,222.0,0.22,12.6,22.7,"12:43:04",1
"17/05/28","13:00",0.0,23.8,50.9,1006.9,331.9,1.6,4.1,312.7,0.33,13.1,22.8,"12:59:36",1
"17/05/28","13:10",0.0,24.4,47.7,1007.1,304.5,2.0,6.0,328.0,0.34,12.6,22.7,"13:05:44",1
"17/05/28","13:20",0.0,25.3,48.5,1006.9,294.4,1.5,5.1,332.7,0.60,13.7,22.6,"13:18:16",1
"17/05/28","13:30",0.0,24.9,49.2,1007.1,332.0,2.6,6.5,336.3,0.44,13.6,22.7,"13:21:20",1
"17/05/28","13:40",0.0,24.9,49.5,1006.7,306.1,2.2,5.5,346.1,0.49,13.7,22.5,"13:35:44",1
"17/05/28","13:50",0.0,25.8,45.6,1006.2,289.2,1.6,5.8,320.1,0.59,13.2,22.7,"13:40:02",1
"17/05/28","14:00",0.0,25.7,46.1,1006.2,328.2,2.7,5.9,334.2,0.59,13.3,22.7,"13:50:16",1
"17/05/28","14:10",0.0,25.8,45.4,1006.0,324.2,2.2,5.2,309.6,0.59,13.2,23.0,"14:07:04",1
"17/05/28","14:20",0.0,26.5,42.4,1005.5,326.9,1.5,3.6,68.1,0.57,12.7,23.1,"14:19:04",1
"17/05/28","14:30",0.0,25.7,43.8,1005.7,15.5,2.5,4.9,348.3,0.54,12.5,23.2,"14:24:40",1
"17/05/28","14:40",0.0,25.1,43.8,1006.0,358.1,2.3,5.4,30.4,0.32,12.0,23.2,"14:38:24",1
"17/05/28","14:50",0.0,26.1,43.6,1005.5,6.3,2.1,4.2,7.0,0.45,12.8,23.5,"14:48:56",1
"17/05/28","15:00",0.0,26.6,42.9,1005.7,347.6,2.7,6.0,318.1,0.49,13.0,23.3,"14:50:32",1
"17/05/28","15:10",0.0,26.1,43.0,1005.2,352.9,2.3,5.8,345.5,0.43,12.6,23.5,"15:07:04",1
"17/05/28","15:20",0.0,26.9,41.0,1005.2,347.4,2.0,5.0,326.9,0.45,12.6,23.6,"15:19:44",1
"17/05/28","15:30",0.0,26.3,41.1,1005.0,335.3,3.1,6.4,344.4,0.43,12.1,23.5,"15:22:24",1
"17/05/28","15:40",0.0,26.3,41.2,1005.5,343.9,2.7,5.2,356.5,0.41,12.1,23.6,"15:33:04",1
"17/05/28","15:50",0.0,26.4,40.1,1005.2,351.7,2.7,4.4,349.1,0.39,11.8,23.5,"15:46:00",1
"17/05/28","16:00",0.0,26.6,38.5,1005.2,6.5,2.1,4.8,344.7,0.37,11.4,23.6,"15:55:12",1
"17/05/28","16:10",0.0,26.4,39.3,1005.2,6.2,2.6,5.0,6.8,0.34,11.5,23.5,"16:08:32",1
"17/05/28","16:20",0.0,26.4,38.5,1005.0,6.1,1.8,4.7,4.6,0.32,11.2,23.4,"16:14:56",1
"17/05/28","16:30",0.0,26.6,37.6,1005.2,359.9,2.0,4.3,343.6,0.30,11.0,23.5,"16:24:40",1
"17/05/28","16:40",0.0,26.3,39.3,1005.2,359.7,2.3,6.6,33.4,0.27,11.4,23.5,"16:33:20",1
"17/05/28","16:50",0.0,26.5,38.5,1005.2,347.0,2.1,4.7,348.0,0.25,11.3,23.3,"16:41:52",1
"17/05/28","17:00",0.0,26.1,39.1,1005.2,1.4,2.3,5.6,27.9,0.22,11.2,23.3,"16:54:40",1
"17/05/28","17:10",0.0,26.0,37.2,1005.0,346.4,2.2,6.0,343.5,0.15,10.3,23.3,"17:01:44",1
"17/05/28","17:20",0.0,26.0,36.4,1005.0,359.6,2.3,4.4,349.3,0.01,10.0,23.4,"17:11:04",1
"17/05/28","17:30",0.0,25.8,37.3,1005.0,351.3,2.3,4.7,336.9,0.01,10.2,23.2,"17:20:32",1
"17/05/28","17:40",0.0,25.6,39.0,1005.0,337.6,2.1,3.7,334.1,0.01,10.7,23.0,"17:32:40",1
"17/05/28","17:50",0.0,25.4,38.3,1004.8,336.3,2.0,3.6,338.3,0.00,10.2,23.2,"17:44:08",1
"17/05/28","18:00",0.0,25.3,39.1,1004.8,358.9,1.3,2.7,39.7,0.00,10.4,23.0,"17:57:04",1
"17/05/28","18:10",0.0,25.1,40.0,1005.0,351.8,1.6,4.3,344.4,0.00,10.6,22.9,"18:03:12",1
"17/05/28","18:20",0.0,24.8,38.8,1005.2,355.6,1.6,3.5,350.8,0.00,9.9,22.9,"18:13:04",1
"17/05/28","18:30",0.0,24.3,42.1,1005.2,340.8,1.6,3.1,342.6,0.00,10.7,22.8,"18:20:48",1
"17/05/28","18:40",0.0,23.4,44.4,1005.0,331.8,2.0,3.4,328.9,0.00,10.6,22.7,"18:31:44",1
"17/05/28","18:50",0.0,22.6,49.3,1005.5,333.4,2.0,3.1,330.8,0.00,11.5,22.5,"18:44:00",1
"17/05/28","19:00",0.0,21.7,51.8,1005.7,326.0,1.6,3.2,338.9,0.00,11.4,22.5,"18:55:04",1
"17/05/28","19:10",0.0,21.1,54.8,1006.0,311.9,1.0,1.8,332.6,0.00,11.7,22.4,"19:05:36",1
"17/05/28","19:20",0.0,20.4,55.1,1006.2,279.4,0.8,1.3,308.4,0.00,11.1,22.4,"19:13:24",1
"17/05/28","19:30",0.0,20.0,56.8,1006.2,285.2,1.2,2.9,313.3,0.00,11.2,22.2,"19:27:14",1
"17/05/28","19:40",0.0,19.6,58.0,1006.4,294.3,1.3,2.6,306.9,0.00,11.2,22.0,"19:32:40",1
"17/05/28","19:50",0.0,19.2,58.6,1006.4,281.0,1.3,2.0,286.8,0.00,10.9,21.8,"19:42:48",1
"17/05/28","20:00",0.0,19.2,59.0,1006.7,310.8,1.7,2.9,334.6,0.00,11.0,21.8,"19:55:04",1
"17/05/28","20:10",0.0,19.0,59.5,1006.9,317.6,2.0,2.9,337.2,0.00,11.0,21.6,"20:07:44",1
"17/05/28","20:20",0.0,18.7,60.7,1006.7,310.5,2.0,3.9,332.9,0.00,11.0,21.5,"20:15:44",1
"17/05/28","20:30",0.0,18.5,61.6,1007.1,302.8,1.5,4.5,333.2,0.00,11.0,21.2,"20:23:52",1
"17/05/28","20:40",0.0,18.2,62.4,1007.1,310.2,2.0,2.9,330.0,0.00,10.9,21.2,"20:33:20",1
"17/05/28","20:50",0.0,18.2,62.3,1006.9,323.7,2.7,4.0,324.0,0.00,10.9,20.9,"20:44:00",1
"17/05/28","21:00",0.0,18.2,62.5,1007.1,332.1,2.3,4.9,333.1,0.00,11.0,20.9,"20:51:44",1
"17/05/28","21:10",0.0,18.0,63.1,1007.1,329.4,2.7,4.1,323.7,0.00,10.9,20.8,"21:05:28",1
"17/05/28","21:20",0.0,17.6,63.7,1007.4,308.9,1.3,2.5,340.1,0.00,10.7,20.7,"21:10:16",1
"17/05/28","21:30",0.0,17.2,65.2,1007.6,311.1,1.2,2.7,329.3,0.00,10.7,20.7,"21:26:48",1
"17/05/28","21:40",0.0,16.9,66.0,1007.4,290.1,1.1,2.0,268.3,0.00,10.6,20.4,"21:31:04",1
"17/05/28","21:50",0.0,16.8,66.6,1007.4,307.5,1.6,3.7,329.9,0.00,10.6,20.3,"21:48:24",1
"17/05/28","22:00",0.0,17.0,65.9,1008.1,311.6,2.0,3.7,325.6,0.00,10.6,20.2,"21:54:32",1
"17/05/28","22:10",0.0,16.9,65.7,1007.6,309.9,2.0,4.3,340.9,0.00,10.5,20.1,"22:08:40",1
"17/05/28","22:20",0.0,16.9,65.5,1007.6,307.6,1.6,3.1,333.0,0.00,10.4,19.9,"22:17:44",1
"17/05/28","22:30",0.0,16.8,65.7,1008.1,333.9,2.3,4.0,342.5,0.00,10.4,20.0,"22:20:24",1
"17/05/28","22:40",0.0,16.6,65.8,1007.8,305.5,1.7,3.4,342.5,0.00,10.2,19.7,"22:38:24",1
"17/05/28","22:50",0.0,16.4,66.6,1007.8,321.3,1.7,2.6,328.1,0.00,10.2,19.9,"22:46:56",1
"17/05/28","23:00",0.0,16.3,67.3,1007.6,329.7,2.3,3.7,352.5,0.00,10.3,19.7,"22:55:36",1
"17/05/28","23:10",0.0,16.1,67.9,1007.8,325.7,1.7,3.2,331.7,0.00,10.2,19.6,"23:02:16",1
"17/05/28","23:20",0.0,16.0,68.4,1007.4,340.6,1.3,2.5,331.8,0.00,10.2,19.3,"23:13:12",1
"17/05/28","23:30",0.0,15.8,69.8,1007.4,334.3,1.0,1.9,342.2,0.00,10.3,19.4,"23:20:16",1
"17/05/28","23:40",0.0,15.3,71.1,1007.6,313.6,1.0,2.4,346.7,0.00,10.1,19.5,"23:35:36",1
"17/05/28","23:50",0.0,15.1,72.0,1007.6,325.1,1.2,2.7,341.4,0.00,10.1,19.3,"23:48:32",1
"17/05/28","24:00",0.0,15.3,71.9,1007.6,298.6,1.1,4.1,304.5,0.00,10.3,19.4,"23:50:16",1
